Regional Weather Roundup
Issued by NWS

Home | Current Version | Previous Version | Graphics & Text | Print | Product List | Glossary Off
Versions: 1 2 3 4 5 6 7 8 9 10 11 12 13 14 15 16 17 18 19 20 21 22 23 24 25 26 27 28 29 30 31 32 33 34 35 36 37 38 39 40 41 42 43 44 45 46 47 48 49 50

925
ASUS43 KMKX 041611
RWRWI

WISCONSIN REGIONAL WEATHER ROUNDUP
NATIONAL WEATHER SERVICE MILWAUKEE/SULLIVAN WI
1000 AM CST SUN DEC 04 2016

NOTE: "FAIR" INDICATES FEW OR NO CLOUDS BELOW 12,000 FEET WITH NO
SIGNIFICANT WEATHER AND/OR OBSTRUCTIONS TO VISIBILITY.

WIZ001-002-006>008-014>016-023>028-041700-
NORTHWEST WISCONSIN

CITY           SKY/WX    TMP DP  RH WIND       PRES   REMARKS
SUPERIOR ARPT  MIX PCPN  31  29  93 CALM      29.92F
ASHLAND        LGT SNOW  30  28  92 SE6       29.96F VSB 1   WCI  24
HAYWARD        LGT SNOW  30  27  88 SE9G17    29.92F FOG     WCI  22
SIREN          LGT SNOW  31  30  93 SE9       29.89F WCI  23
CUMBERLAND     LGT SNOW  30  28  93 SE9       29.90F WCI  22
RICE LAKE      LGT SNOW  31  29  94 SE12      29.93F WCI  22
CHETEK         LGT SNOW  31  29  95 SE8       29.92F VSB 1   WCI  23
LADYSMITH      LGT SNOW  30  29  95 SE9       29.95F VSB 1   WCI  22
EAU CLAIRE     LGT SNOW  31  30  96 SE12      29.93F VSB 1   WCI  22
MENOMONIE      LGT SNOW  32  32  99 SE9       29.93F WCI  24
NEW RICHMOND   CLOUDY    32  31  96 SE7       29.90F FOG     WCI  25
OSCEOLA        FLURRIES  32  32 100 SE12      29.92F WCI  23
$$

WIZ003>005-009-010-017-018-041700-
NORTH CENTRAL WISCONSIN

CITY           SKY/WX    TMP DP  RH WIND       PRES   REMARKS
MANITOWISH WTR LGT SNOW  27  27 100 SE9       29.96F WCI  18
ARBOR VITAE    LGT SNOW  29  27  92 SE7       29.96F WCI  22
WOODRUFF       LGT SNOW  29  27  92 SE7       29.96F WCI  22
RHINELANDER    LGT SNOW  28  26  92 SE7       29.99F VSB 1   WCI  21
EAGLE RIVER    LGT SNOW  27  23  87 SE5       29.99S WCI  21
LAND O LAKES   LGT SNOW  28  25  88 S7        30.00S WCI  21
PHILLIPS       LGT SNOW  27  26  96 SE7       29.95F WCI  20
TOMAHAWK       LGT SNOW  28  25  91 SE3       29.99F
MEDFORD        LGT SNOW  28  26  92 SE8       29.95F VSB 1   WCI  20
MERRILL        LGT SNOW  28  27  96 SE7       30.01F WCI  21
$$

WIZ029-030-035-036-043>047-041700-
CENTRAL WISCONSIN

CITY           SKY/WX    TMP DP  RH WIND       PRES   REMARKS
WAUSAU         LGT SNOW  28  27  96 SE8       30.01F VSB 3/4 WCI  20
MOSINEE        LGT SNOW  28  28 100 SE8       30.02F WCI  20
MARSHFIELD     SNOW      30  27  88 SE9       29.97F VSB 1/2 WCI  22
STEVENS POINT  MIX PCPN  28  28 100 SE7       30.03F WCI  21
WAUPACA        LGT SNOW  32  31  94 SE6       30.06F WCI  27
WAUTOMA        LGT SNOW  31  29  92 SE7       30.06F FOG     WCI  24
WISC RAPIDS    SNOW      30  30 100 SE8       30.02F VSB 1/2 WCI  22
CAMP DOUGLAS   LGT SNOW  32  30  93 SE13      30.00F FOG     WCI  22
$$

WIZ011>013-019>022-031-037>040-048>050-041700-
NORTHEAST WISCONSIN

CITY           SKY/WX    TMP DP  RH WIND       PRES   REMARKS
ANTIGO         LGT SNOW  27  26  95 SE9       30.02F WCI  18
SHAWANO        LGT SNOW  32  29  90 SE6       30.08F WCI  26
OCONTO         CLOUDY    31  29  92 S5        30.10F WCI  26
STURGEON BAY   FLURRIES  31  26  82 S9        30.11F WCI  23
GREEN BAY      LGT SNOW  32  31  96 SE7       30.10F FOG     WCI  26
MANITOWOC      LGT SNOW  32  28  86 SW5       30.11F FOG     WCI  27
APPLETON       LGT SNOW  30  30 100 S8        30.07F WCI  23
CLINTONVILLE   LGT SNOW  32  30  93 SE8       30.07F WCI  25
OSHKOSH        LGT SNOW  31  29  92 S8        30.08F VSB 3/4 WCI  23
$$

WIZ032>034-041-042-053>061-041700-
SOUTHWEST WISCONSIN

CITY           SKY/WX    TMP DP  RH WIND       PRES   REMARKS
LA CROSSE      LGT SNOW  34  32  92 S13       29.97F VSB 1   WCI  25
SPARTA         LGT SNOW  32  31  96 SE5       29.99F WCI  27
VIROQUA        CLOUDY    31  31  99 SE13G18   29.97F VSB 3/4 WCI  21
BOSCOBEL       LGT SNOW  32  29  88 VRB3      30.03F VSB 3/4
PRAIRIE DU CHI LGT SNOW  32  30  92 SE7       30.01F WCI  26
PLATTEVILLE    CLOUDY    31  31 100 SE15      30.03S VSB 3/4 WCI  20
$$

WIZ056-057-062-063-064-067-068-041700-
SOUTH CENTRAL WISCONSIN

CITY           SKY/WX    TMP DP  RH WIND       PRES   REMARKS
REEDSBURG      MIX PCPN  30  30 100 SE6       30.03F WCI  24
BARABOO/DELLS  LGT SNOW  30  29  94 SE9       30.03F WCI  22
LONE ROCK      LGT SNOW  31  29  92 SE9       30.04F VSB 3/4 WCI  23
MINERAL POINT  LGT SNOW  32  32 100 SE12      30.01F VSB 3/4 WCI  23
MADISON        LGT SNOW  30  28  92 SE10      30.06F VSB 3/4 WCI  21
MIDDLETON      CLOUDY    32  32 100 S6        30.05F VSB 1   WCI  26
WATERTOWN      LGT SNOW  31  31 100 SE5       30.07F WCI  26
MONROE         LGT SNOW  30  30 100 SE8       30.05S VSB 3/4 WCI  23
JANESVILLE     LGT SNOW  32  32 100 SE9       30.07F VSB 3/4 WCI  24
$$

WIZ051-052-058>065-066-070>072-041700-
SOUTHEAST WISCONSIN

CITY           SKY/WX    TMP DP  RH WIND       PRES   REMARKS
MILWAUKEE      CLOUDY    35  26  69 S5        30.10F WCI  31
WAUKESHA       LGT SNOW  28  27  93 SE7       30.11F VSB 1   WCI  21
MILWAUKEE/TIMM LGT SNOW  32  25  74 CALM      30.11F
RACINE         CLOUDY    35  25  66 CALM      30.12F
BURLINGTON     LGT SNOW  31  29  93 CALM      30.09F VSB 1
KENOSHA        CLOUDY    34  27  75 E6        30.10F WCI  29
FOND DU LAC    LGT SNOW  31  27  85 S8        30.08F VSB 3/4 WCI  23
SHEBOYGAN      LGT SNOW  32  27  81 S6        30.10F WCI  26
WEST BEND      LGT SNOW  30  30 100 SE5       30.09F VSB 1   WCI  25
JUNEAU         LGT SNOW  29  28  96 SE7       30.08F VSB 3/4 WCI  22
$$

LSZ147-162-041700-
LAKE SUPERIOR

STATION/POSITION TIME  TEMP    WIND        PRES    WAVE
                       AIR SEA DIR/SP/G            HT/PER
                 (UTC) (F)     (DEG/KT/KT) (MB)    (FT/S)
DEVILS ISLAND    1500   32     160/  8/ 11 1016.2F
PORT WING        1540   31     160/  4/  7 1013.9F
SAXON HARBOR     1540   32     170/  4/  7 1014.9F
$$

LMZ867-665-643>646-041700-
LAKE MICHIGAN

STATION/POSITION TIME  TEMP    WIND        PRES    WAVE
                       AIR SEA DIR/SP/G            HT/PER
                 (UTC) (F)     (DEG/KT/KT) (MB)    (FT/S)
CHAMBERS ISLAND  1540   34     190/  2/  6 1019.0F
NORTHPORT PIER   1540   33     180/  1/  4 1019.6F
SISTER BAY       1539   33     190/  8/ 10   N/A
ALGOMA LAKESHORE 1551          240/  8/  9   N/A
KEWAUNEE LAKESHO 1548   31     210/  4/  5 1019.2F
SHEBOYGAN LAKESH 1600   33     210/  8/  9 1020.0F
PORT WASHINGTON  1540   33     200/  5/  7 1021.0S
MILWAUKEE LAKESH 1550   34     200/  3/  3   N/A
S MID LAKE BUOY  1550   38 48  140/ 14/ 17 1020.2F   0
KENOSHA   LAKESH 1500   34     220/  3/  4 1020.3
$$

TC  - TEMPERATURE IN CELSIUS
VSB - VISIBILITY IN STATUTE MILES
WCI - WIND CHILL INDEX
HX  - HEAT INDEX





USA.gov is the U.S. government's official web portal to all federal, state and local government web resources and services.